TimeCEST,TemperatureF,Dew PointF,Humidity,Sea Level PressureIn,VisibilityMPH,Wind Direction,Wind SpeedMPH,Gust SpeedMPH,PrecipitationIn,Events,Conditions,WindDirDegrees,DateUTC
12:25 AM,53.6,48.2,82,30.06,6.2,NE,6.9,-,N/A,,Unknown,50,2013-05-06 22:25:00
12:55 AM,53.6,48.2,82,30.06,6.2,NE,5.8,-,N/A,,Unknown,40,2013-05-06 22:55:00
1:25 AM,53.6,46.4,77,30.06,6.2,North,4.6,-,N/A,,Unknown,10,2013-05-06 23:25:00
1:55 AM,51.8,46.4,82,30.06,6.2,NNE,2.3,-,N/A,,Unknown,30,2013-05-06 23:55:00
2:00 AM,51,47,80,30.08,7,NNE,2.2,,,,Partly Cloudy,30,2013-05-07 00:00:00
2:25 AM,51.8,48.2,88,30.06,6.2,NE,3.5,-,N/A,,Unknown,40,2013-05-07 00:25:00
2:55 AM,51.8,46.4,82,30.04,5.6,NE,3.5,-,N/A,,Unknown,40,2013-05-07 00:55:00
3:25 AM,50.0,48.2,94,30.04,4.3,NE,3.5,-,N/A,,Unknown,40,2013-05-07 01:25:00
3:55 AM,50.0,46.4,87,30.04,3.7,NE,3.5,-,N/A,,Unknown,50,2013-05-07 01:55:00
4:25 AM,48.2,46.4,93,30.04,3.1,ENE,3.5,-,N/A,,Mist,70,2013-05-07 02:25:00
4:55 AM,50.0,48.2,94,30.04,-9999.0,ENE,2.3,-,N/A,,Mist,60,2013-05-07 02:55:00
5:00 AM,48,47,96,30.06,2,ENE,2.2,,,,Mist,60,2013-05-07 03:00:00
5:25 AM,48.2,46.4,93,30.04,-9999.0,ENE,1.2,-,N/A,,Mist,70,2013-05-07 03:25:00
5:55 AM,48.2,46.4,93,30.06,1.2,ENE,2.3,-,N/A,,Mist,70,2013-05-07 03:55:00
6:25 AM,48.2,46.4,93,30.06,-9999.0,ENE,1.2,-,N/A,,Mist,60,2013-05-07 04:25:00
6:55 AM,48.2,48.2,100,30.06,-9999.0,ENE,2.3,-,N/A,,Mist,70,2013-05-07 04:55:00
7:25 AM,53.6,50.0,88,30.06,2.8,NE,3.5,-,N/A,,Mist,50,2013-05-07 05:25:00
7:55 AM,57.2,50.0,77,30.06,5.0,ENE,4.6,-,N/A,,Unknown,60,2013-05-07 05:55:00
8:00 AM,57,51,72,30.07,6,ENE,6.7,,,,Mist,70,2013-05-07 06:00:00
8:25 AM,59.0,50.0,72,30.06,6.2,East,5.8,-,N/A,,Unknown,80,2013-05-07 06:25:00
8:55 AM,60.8,51.8,72,30.06,6.2,East,4.6,-,N/A,,Unknown,100,2013-05-07 06:55:00
9:25 AM,64.4,51.8,64,30.06,6.2,ENE,5.8,-,N/A,,Unknown,70,2013-05-07 07:25:00
9:55 AM,66.2,51.8,60,30.04,6.2,NE,4.6,-,N/A,,Unknown,40,2013-05-07 07:55:00
10:25 AM,68.0,51.8,56,30.04,6.2,NE,5.8,-,N/A,,Unknown,50,2013-05-07 08:25:00
10:55 AM,69.8,51.8,53,30.04,6.2,East,10.4,-,N/A,,Unknown,80,2013-05-07 08:55:00
11:00 AM,70,51,41,30.06,14,East,8.9,,,,,80,2013-05-07 09:00:00
11:25 AM,71.6,50.0,46,30.04,6.2,East,10.4,-,N/A,,Unknown,80,2013-05-07 09:25:00
11:55 AM,71.6,46.4,41,30.04,6.2,East,12.7,-,N/A,,Unknown,90,2013-05-07 09:55:00
12:25 PM,73.4,50.0,44,30.04,6.2,ENE,12.7,-,N/A,,Unknown,70,2013-05-07 10:25:00
12:55 PM,73.4,48.2,41,30.04,6.2,ENE,16.1,-,N/A,,Unknown,70,2013-05-07 10:55:00
1:25 PM,75.2,50.0,41,30.04,6.2,East,13.8,-,N/A,,Unknown,80,2013-05-07 11:25:00
1:55 PM,73.4,44.6,36,30.04,6.2,ENE,18.4,-,N/A,,Unknown,70,2013-05-07 11:55:00
2:00 PM,74,44,24,30.04,19,East,15.7,,,,Partly Cloudy,80,2013-05-07 12:00:00
2:25 PM,73.4,44.6,36,30.01,6.2,East,17.3,-,N/A,,Unknown,90,2013-05-07 12:25:00
2:55 PM,73.4,46.4,38,30.01,6.2,ENE,16.1,-,N/A,,Unknown,70,2013-05-07 12:55:00
3:25 PM,73.4,42.8,33,30.01,6.2,East,18.4,32.2,N/A,,Unknown,100,2013-05-07 13:25:00
3:55 PM,71.6,46.4,41,30.01,6.2,East,13.8,-,N/A,,Partly Cloudy,90,2013-05-07 13:55:00
4:25 PM,69.8,46.4,43,30.01,6.2,East,11.5,-,N/A,,Unknown,100,2013-05-07 14:25:00
4:55 PM,62.6,53.6,72,30.01,6.2,East,10.4,-,N/A,Rain,Light Rain,100,2013-05-07 14:55:00
5:00 PM,62,54,69,30.03,10,ESE,8.9,,,Rain,Light Rain Showers,110,2013-05-07 15:00:00
5:25 PM,60.8,55.4,82,30.01,6.2,East,5.8,-,N/A,Rain,Drizzle,100,2013-05-07 15:25:00
5:55 PM,60.8,55.4,82,30.01,6.2,East,3.5,-,N/A,,Light Drizzle,90,2013-05-07 15:55:00
6:25 PM,62.6,57.2,82,29.98,6.2,NNW,5.8,-,N/A,Rain,Light Rain,340,2013-05-07 16:25:00
6:55 PM,62.6,57.2,82,29.98,6.2,North,6.9,-,N/A,Rain,Light Rain,350,2013-05-07 16:55:00
7:25 PM,62.6,55.4,77,29.98,6.2,North,8.1,-,N/A,,Partly Cloudy,10,2013-05-07 17:25:00
7:55 PM,62.6,53.6,72,29.98,6.2,NNE,8.1,-,N/A,,Unknown,20,2013-05-07 17:55:00
8:00 PM,63,54,64,29.98,15,NNE,8.9,,,Rain,Drizzle,30,2013-05-07 18:00:00
8:25 PM,62.6,53.6,72,29.95,6.2,NE,8.1,-,N/A,,Unknown,40,2013-05-07 18:25:00
8:55 PM,62.6,53.6,72,29.95,6.2,ENE,12.7,-,N/A,,Unknown,60,2013-05-07 18:55:00
9:25 PM,60.8,51.8,72,29.95,6.2,ENE,13.8,-,N/A,,Unknown,60,2013-05-07 19:25:00
9:55 PM,60.8,53.6,77,29.95,6.2,ENE,11.5,-,N/A,,Unknown,60,2013-05-07 19:55:00
10:25 PM,59.0,53.6,82,29.95,6.2,ENE,10.4,-,N/A,,Unknown,70,2013-05-07 20:25:00
10:55 PM,59.0,53.6,82,29.95,6.2,ENE,10.4,-,N/A,,Unknown,60,2013-05-07 20:55:00
11:00 PM,58,53,77,29.96,14,ENE,8.9,,,,Overcast,60,2013-05-07 21:00:00
11:25 PM,59.0,51.8,77,29.95,6.2,ENE,9.2,-,N/A,,Scattered Clouds,60,2013-05-07 21:25:00
11:55 PM,59.0,51.8,77,29.95,6.2,ENE,11.5,-,N/A,,Overcast,70,2013-05-07 21:55:00